[Date Prev][Date Next][Thread Prev][Thread Next] - [Date Index][Thread Index][Author Index]
STS-121 - ISS KEPS 6 JULY 2006
- Subject: [sarex] STS-121 - ISS KEPS 6 JULY 2006
- From: Arthur Rowe <azrowe80@xxxxxxxxxxx>
- Date: Thu, 06 Jul 2006 04:54:26 -0400
- User-Agent: Thunderbird 1.5.0.4 (Windows/20060516)
SUBMITTED BY ARTHUR BN1ORC - AMSAT A/C #31468
ISS (ZARYA)
1 25544U 98067A 06186.87944920 .00012382 00000-0 81391-4 0 2326
2 25544 51.6307 91.1989 0010619 43.6407 359.1514 15.76109972436112
STS 121
1 29251U 06028A 06187.15259166 .00159330 20735-4 37792-3 0 86
2 29251 51.6332 89.8402 0063272 154.9638 340.6687 15.92738852 226
----
Via the sarex mailing list at AMSAT.ORG courtesy of AMSAT-NA.
To unsubscribe, send "unsubscribe sarex" to Majordomo@amsat.org
AMSAT Home